Miscellaneous Hydrologic Data Report
Issued by NWS (Baltimore/Washington) Sterling, VA
1 of 53 available versions  First Miscellaneous Hydrologic Data Report Previous Miscellaneous Hydrologic Data Report  Print this page Close this Window


000
ASUS41 KLWX 301810
RWRLWX

REGIONAL WEATHER ROUNDUP
NATIONAL WEATHER SERVICE BALTIMORE MD/WASHINGTON DC
100 PM EST FRI JAN 30 2015

Note: "FAIR" indicates few or no clouds below 12,000 feet
with no significant weather and/or obstructions to visibility.
 TC=TEMPERATURE CELSIUS

 * =Non NWS site. Station does not report precipitation (e.g. rain,
    snow, etc.), thunder, or fog.

DCZ001-MDZ009-015-VAZ040>042-051-053>054-301900-
WASHINGTON METRO

CITY           SKY/WX    TMP DP  RH WIND       PRES   REMARKS
WASHINGTON NAT MOSUNNY   43  13  29 NW15G28   30.04F
DULLES         MOSUNNY   36  14  40 NW29G40   30.04F WCI  23
ANDREWS AFB    PTSUNNY   39  16  39 NW26G35   30.01S WCI  28
FT BELVOIR     PTSUNNY   40  12  32 NW24G37   30.06S WCI  29
QUANTICO       PTSUNNY   40  17  39 NW29G43   30.08R WCI  29
COLLEGE PARK*  CLOUDY    37  18  44 NW18G28   30.03F WCI  27
LEESBURG*      MOSUNNY   37  19  48 NW21G31   30.06S WCI  27
MANASSAS*      CLOUDY    37  18  44 NW17G30   30.07S WCI  28
GAITHERSBURG*  PTSUNNY   36  18  48 NW16G30   30.05S WCI  26

$$

MDZ006>007-011-014-301900-
BALTIMORE METRO

CITY           SKY/WX    TMP DP  RH WIND       PRES   REMARKS
BWI AIRPORT    PTSUNNY   37  18  44 NW21G30   30.00  WCI  27
MD SCIENCE CTR   N/A     38  18  44 MISG      30.00S
MARTIN STATE   PTSUNNY   41  25  52 W24G30    30.00S
ANNAPOLIS      CLOUDY    39  19  44 NW16G23   29.99F
FORT MEADE*    CLOUDY    37  23  56 W20G31    30.04R WCI  27

$$

MDZ012-015-019>023-301900-
MARYLAND EASTERN SHORE

CITY           SKY/WX    TMP DP  RH WIND       PRES   REMARKS
OCEAN CITY     CLOUDY    43  21  41 NW17G24   29.92F
SALISBURY      PTSUNNY   45  16  31 NW22G30   29.93F
BAY BRIDGE AP*   N/A     37  21  52 W23G32    29.99S WCI  26
CAMBRIDGE*     MOSUNNY   43  23  45 NW21G33   29.97S
EASTON*        MOSUNNY   45  25  45 NW23G31   30.00S

$$

MDZ017>025-301900-
SOUTHERN MARYLAND

CITY           SKY/WX    TMP DP  RH WIND       PRES   REMARKS
PATUXENT RIVER PTSUNNY   36  23  59 NW21G37   30.01S WCI  25
ST INIGOES     CLOUDY    39  21  48 NW17G31   30.01F
LEONARDTOWN*   CLOUDY    36  21  55 W16G31    30.03S WCI  26

$$

MDZ003>005-301900-
NORTH CENTRAL MARYLAND

CITY           SKY/WX    TMP DP  RH WIND       PRES   REMARKS
FREDERICK*     PTSUNNY   37  18  44 NW25G31   30.08S WCI  26
HAGERSTOWN APT CLOUDY    32  15  49 NW22G30   30.06R WCI  19
WESTMINSTER*   CLOUDY    34  19  55 NW20G28   30.00S WCI  22

$$

MDZ501>502-301900-
WESTERN MARYLAND

CITY           SKY/WX    TMP DP  RH WIND       PRES   REMARKS
OAKLAND*       FOG       16 N/A N/A NW16G22   30.03S VSB 1   WCI   0
CUMBERLAND*    MOSUNNY   32  12  43 NW21G33   30.19R WCI  20

$$

VAZ025>031-301900-
SHENANDOAH VALLEY

CITY           SKY/WX    TMP DP  RH WIND       PRES   REMARKS
WINCHESTER*    MOSUNNY   34  14  44 NW20G32   30.07F WCI  22
FRONT ROYAL*   MOCLDY    34  18  51 NW12G22   30.08S WCI  25
LURAY*         CLOUDY    36  16  44 W13G28    30.09R WCI  27
NEW MARKET*    CLOUDY    33  14  46 N8G16     30.10R WCI  26
STAUNTON*      PTSUNNY   35  10  35 NW21G26   30.09R WCI  24
WAYNESBORO*    FAIR      35  11  36 NW15G30   30.05R WCI  26

$$

WVZ021-048>050-054>055-301900-
EASTERN WEST VIRGINIA PANHANDLE

CITY           SKY/WX    TMP DP  RH WIND       PRES   REMARKS
MARTINSBURG    MOSUNNY   35  15  44 NW18G31   30.07R WCI  24
PETERSBURG*    NOT AVBL

$$

VAZ036>039-050-301900-
CENTRAL FOOTHILLS

CITY           SKY/WX    TMP DP  RH WIND       PRES   REMARKS
CHARLOTTESVILL PTSUNNY   41  14  33 NW10G24   30.06R
CULPEPER*      PTSUNNY   39  18  41 NW17      30.07S
ORANGE*        CLOUDY    41  19  42 NW15G22   30.08R
GORDONSVILLE*  CLOUDY    39  15  38 NW9G23    30.05S
WARRENTON*     CLOUDY    39  24  54 NW22G33   30.06S WCI  28

$$

VAZ055>057-301900-
NORTH AND CENTRAL PIEDMONT

CITY           SKY/WX    TMP DP  RH WIND       PRES   REMARKS
FREDERICKSBRG* PTSUNNY   40  18  40 NW15G29   30.05S
STAFFORD*      CLOUDY    37  19  47 NW22G28   30.10R WCI  27

$$

NCZ024-NYZ072-PAZ021-071-VAZ022-071-301900-
OTHER REGIONAL OBSERVATIONS

CITY           SKY/WX    TMP DP  RH WIND       PRES   REMARKS
NEW YORK CITY  CLOUDY    38  21  50 NW12G18   29.85F
PHILADELPHIA   PTSUNNY   40  19  43 NW21G29   29.91F
PITTSBURGH     LGT SNOW  19  12  74 NW18G29   30.25R WCI   4
ROANOKE        CLOUDY    36  15  42 NW21G26   30.15S WCI  25
RICHMOND       PTSUNNY   44  25  47 N16G24    30.03S
RALEIGH        MOSUNNY   46  20  35 NW14G25   30.09F

$$

ANZ530>537-301900-
MARINE OBSERVATIONS

STATION/POSITION TIME  TEMP    WIND        PRES
                       AIR SEA DIR/SP/G
                 (UTC) (F)     (DEG/KT/KT) (MB)
THOMAS PT LIGHT  1800   38 36  310/ 21/ 23 1016.3R
BALT KEY BRIDGE  1800   38     280/ 17/ 22 1015.4R
COVE POINT       1800   37     320/ 24/ 36 1015.6R
LEWISETTA        1800   38 37  340/ 14/ 22 1016.2S
SOLOMONS ISLAND  1800      37                N/A
PINEY POINT      1800          350/ 30/ 34   N/A

$$

Close this window


The National Weather Service prepares its forecasts and other services in collaboration with agencies like the US Geological Survey, US Bureau of Reclamation, US Army Corps of Engineers, Natural Resource Conservation Service, National Park Service, ALERT Users Group, Bureau of Indian Affairs, and many state and local emergency managers across the country. For details, please click here.

National Weather Service
(Baltimore/Washington) Sterling Weather Forecast Office
43858 Weather Service Rd.
Sterling, VA 20166
(703) 996-2200
Page last modified: 30-Jan-2015 6:10 PM
Disclaimer
Credits
Glossary
Privacy Policy
About Us
Career Opportunities